Time,TemperatureF,DewpointF,PressureIn,WindDirection,WindDirectionDegrees,WindSpeedMPH,WindSpeedGustMPH,Humidity,HourlyPrecipIn,Conditions,Clouds,dailyrainin,SoftwareType,DateUTC
2013-09-18 00:11:00,62.6,60.0,29.71,SW,214,5.0,-999.0,91,-99.99,,,0.00,weatherlink.com 1.10,2013-09-18 07:11:00,
2013-09-18 00:26:00,62.6,60.0,29.71,SW,214,0.0,-999.0,91,-99.99,,,0.00,weatherlink.com 1.10,2013-09-18 07:26:00,
2013-09-18 00:41:00,63.1,61.0,29.71,South,187,0.0,-999.0,91,-99.99,,,0.00,weatherlink.com 1.10,2013-09-18 07:41:00,
2013-09-18 00:56:00,63.3,61.0,29.71,South,175,0.0,-999.0,91,-99.99,,,0.00,weatherlink.com 1.10,2013-09-18 07:56:00,
2013-09-18 01:11:00,63.5,61.0,29.71,SSE,168,3.0,-999.0,91,-99.99,,,0.00,weatherlink.com 1.10,2013-09-18 08:11:00,
2013-09-18 01:26:00,63.8,61.0,29.71,SSE,168,3.0,-999.0,90,-99.99,,,0.00,weatherlink.com 1.10,2013-09-18 08:26:00,
2013-09-18 01:41:00,64.1,61.0,29.71,SSW,205,0.0,-999.0,90,-99.99,,,0.00,weatherlink.com 1.10,2013-09-18 08:41:00,
2013-09-18 01:56:00,64.3,61.0,29.70,South,186,1.0,-999.0,89,-99.99,,,0.00,weatherlink.com 1.10,2013-09-18 08:56:00,
2013-09-18 02:12:00,64.3,61.0,29.70,SSE,157,0.0,-999.0,88,-99.99,,,0.00,weatherlink.com 1.10,2013-09-18 09:12:00,
2013-09-18 02:27:00,64.5,61.0,29.70,South,190,0.0,-999.0,88,-99.99,,,0.00,weatherlink.com 1.10,2013-09-18 09:27:00,
2013-09-18 02:42:00,64.7,61.0,29.69,SW,218,0.0,-999.0,87,-99.99,,,0.00,weatherlink.com 1.10,2013-09-18 09:42:00,
2013-09-18 02:57:00,64.9,61.0,29.69,ESE,111,0.0,-999.0,87,-99.99,,,0.00,weatherlink.com 1.10,2013-09-18 09:57:00,
2013-09-18 03:12:00,64.8,61.0,29.69,SSE,148,0.0,-999.0,86,-99.99,,,0.00,weatherlink.com 1.10,2013-09-18 10:12:00,
2013-09-18 03:27:00,65.0,60.0,29.69,SSE,148,0.0,-999.0,85,-99.99,,,0.00,weatherlink.com 1.10,2013-09-18 10:27:00,
2013-09-18 03:42:00,65.0,60.0,29.69,South,183,0.0,-999.0,85,-99.99,,,0.00,weatherlink.com 1.10,2013-09-18 10:42:00,
2013-09-18 03:57:00,65.0,60.0,29.69,SE,146,1.0,-999.0,85,-99.99,,,0.00,weatherlink.com 1.10,2013-09-18 10:57:00,
2013-09-18 04:12:00,65.0,60.0,29.68,SE,140,0.0,-999.0,84,-99.99,,,0.00,weatherlink.com 1.10,2013-09-18 11:12:00,
2013-09-18 04:27:00,65.0,60.0,29.68,SE,141,0.0,-999.0,84,-99.99,,,0.00,weatherlink.com 1.10,2013-09-18 11:27:00,
2013-09-18 04:42:00,65.0,60.0,29.68,ESE,114,2.0,-999.0,84,-99.99,,,0.00,weatherlink.com 1.10,2013-09-18 11:42:00,
2013-09-18 04:57:00,64.9,60.0,29.69,ESE,113,0.0,-999.0,83,-99.99,,,0.00,weatherlink.com 1.10,2013-09-18 11:57:00,
2013-09-18 05:12:00,64.8,60.0,29.69,South,191,0.0,-999.0,83,-99.99,,,0.00,weatherlink.com 1.10,2013-09-18 12:12:00,
2013-09-18 05:27:00,64.8,60.0,29.69,SSW,198,0.0,-999.0,83,-99.99,,,0.00,weatherlink.com 1.10,2013-09-18 12:27:00,
2013-09-18 05:42:00,64.9,60.0,29.70,SE,136,1.0,-999.0,83,-99.99,,,0.00,weatherlink.com 1.10,2013-09-18 12:42:00,
2013-09-18 05:57:00,64.8,60.0,29.70,SE,140,2.0,-999.0,83,-99.99,,,0.00,weatherlink.com 1.10,2013-09-18 12:57:00,
2013-09-18 06:12:00,64.7,59.0,29.71,SSW,195,0.0,-999.0,83,-99.99,,,0.00,weatherlink.com 1.10,2013-09-18 13:12:00,
2013-09-18 06:27:00,64.6,59.0,29.71,ESE,106,0.0,-999.0,83,-99.99,,,0.00,weatherlink.com 1.10,2013-09-18 13:27:00,
2013-09-18 06:42:00,64.6,59.0,29.71,ESE,106,0.0,-999.0,83,-99.99,,,0.00,weatherlink.com 1.10,2013-09-18 13:42:00,
2013-09-18 06:57:00,64.6,59.0,29.71,South,187,0.0,-999.0,83,-99.99,,,0.00,weatherlink.com 1.10,2013-09-18 13:57:00,
2013-09-18 07:12:00,64.7,59.0,29.71,ENE,74,0.0,-999.0,83,-99.99,,,0.00,weatherlink.com 1.10,2013-09-18 14:12:00,
2013-09-18 07:27:00,64.9,60.0,29.72,ENE,78,2.0,-999.0,83,-99.99,,,0.00,weatherlink.com 1.10,2013-09-18 14:27:00,
2013-09-18 07:42:00,65.2,60.0,29.72,SSE,150,4.0,-999.0,82,-99.99,,,0.00,weatherlink.com 1.10,2013-09-18 14:42:00,
2013-09-18 07:57:00,65.7,60.0,29.73,SSE,150,0.0,-999.0,81,-99.99,,,0.00,weatherlink.com 1.10,2013-09-18 14:57:00,
2013-09-18 08:12:00,66.1,60.0,29.73,SSE,150,0.0,-999.0,80,-99.99,,,0.00,weatherlink.com 1.10,2013-09-18 15:12:00,
2013-09-18 08:27:00,66.5,60.0,29.73,SSE,150,0.0,-999.0,79,-99.99,,,0.00,weatherlink.com 1.10,2013-09-18 15:27:00,
2013-09-18 08:42:00,67.1,60.0,29.74,SSW,197,2.0,-999.0,79,-99.99,,,0.00,weatherlink.com 1.10,2013-09-18 15:42:00,
2013-09-18 08:57:00,67.4,60.0,29.74,SSW,202,0.0,-999.0,77,-99.99,,,0.00,weatherlink.com 1.10,2013-09-18 15:57:00,
2013-09-18 09:12:00,69.1,61.0,29.74,ESE,115,3.0,-999.0,75,-99.99,,,0.00,weatherlink.com 1.10,2013-09-18 16:12:00,
2013-09-18 09:27:00,70.0,61.0,29.74,SE,137,1.0,-999.0,72,-99.99,,,0.00,weatherlink.com 1.10,2013-09-18 16:27:00,
2013-09-18 09:42:00,69.7,60.0,29.74,SW,221,1.0,-999.0,72,-99.99,,,0.00,weatherlink.com 1.10,2013-09-18 16:42:00,
2013-09-18 09:57:00,71.9,61.0,29.74,SSW,192,2.0,-999.0,69,-99.99,,,0.00,weatherlink.com 1.10,2013-09-18 16:57:00,
2013-09-18 10:12:00,71.8,61.0,29.73,South,190,0.0,-999.0,69,-99.99,,,0.00,weatherlink.com 1.10,2013-09-18 17:12:00,
2013-09-18 10:27:00,72.2,61.0,29.74,South,186,2.0,-999.0,69,-99.99,,,0.00,weatherlink.com 1.10,2013-09-18 17:27:00,
2013-09-18 10:42:00,73.1,62.0,29.74,West,275,4.0,-999.0,68,-99.99,,,0.00,weatherlink.com 1.10,2013-09-18 17:42:00,
2013-09-18 10:57:00,72.9,62.0,29.74,SSW,202,3.0,-999.0,68,-99.99,,,0.00,weatherlink.com 1.10,2013-09-18 17:57:00,
2013-09-18 11:12:00,73.9,62.0,29.74,South,182,2.0,-999.0,66,-99.99,,,0.00,weatherlink.com 1.10,2013-09-18 18:12:00,
2013-09-18 11:27:00,73.4,62.0,29.74,SW,214,5.0,-999.0,67,-99.99,,,0.00,weatherlink.com 1.10,2013-09-18 18:27:00,
2013-09-18 11:42:00,73.3,62.0,29.73,SW,217,10.0,-999.0,67,-99.99,,,0.00,weatherlink.com 1.10,2013-09-18 18:42:00,
2013-09-18 11:57:00,72.6,61.0,29.73,South,185,2.0,-999.0,68,-99.99,,,0.00,weatherlink.com 1.10,2013-09-18 18:57:00,
2013-09-18 12:12:00,73.5,61.0,29.74,South,191,4.0,-999.0,66,-99.99,,,0.00,weatherlink.com 1.10,2013-09-18 19:12:00,
2013-09-18 12:27:00,73.7,62.0,29.74,SW,235,3.0,-999.0,67,-99.99,,,0.00,weatherlink.com 1.10,2013-09-18 19:27:00,
2013-09-18 12:42:00,73.9,62.0,29.73,SW,215,7.0,-999.0,66,-99.99,,,0.00,weatherlink.com 1.10,2013-09-18 19:42:00,
2013-09-18 12:57:00,73.5,61.0,29.73,SSW,196,5.0,-999.0,66,-99.99,,,0.00,weatherlink.com 1.10,2013-09-18 19:57:00,
2013-09-18 13:12:00,74.0,62.0,29.73,SSW,213,2.0,-999.0,66,-99.99,,,0.00,weatherlink.com 1.10,2013-09-18 20:12:00,
2013-09-18 13:27:00,74.9,61.0,29.73,SW,223,1.0,-999.0,63,-99.99,,,0.00,weatherlink.com 1.10,2013-09-18 20:27:00,
2013-09-18 13:43:00,75.4,62.0,29.72,SW,225,3.0,-999.0,63,-99.99,,,0.00,weatherlink.com 1.10,2013-09-18 20:43:00,
2013-09-18 13:57:00,75.5,62.0,29.71,SW,225,2.0,-999.0,63,-99.99,,,0.00,weatherlink.com 1.10,2013-09-18 20:57:00,
2013-09-18 14:13:00,76.1,62.0,29.71,SSW,195,3.0,-999.0,62,-99.99,,,0.00,weatherlink.com 1.10,2013-09-18 21:13:00,
2013-09-18 14:28:00,75.6,62.0,29.70,WSW,256,5.0,-999.0,62,-99.99,,,0.00,weatherlink.com 1.10,2013-09-18 21:28:00,
2013-09-18 14:43:00,75.7,62.0,29.70,SSW,204,10.0,-999.0,62,-99.99,,,0.00,weatherlink.com 1.10,2013-09-18 21:43:00,
2013-09-18 14:58:00,76.9,63.0,29.70,SW,219,2.0,-999.0,62,-99.99,,,0.00,weatherlink.com 1.10,2013-09-18 21:58:00,
2013-09-18 15:13:00,76.0,62.0,29.69,SSW,207,6.0,-999.0,63,-99.99,,,0.00,weatherlink.com 1.10,2013-09-18 22:13:00,
2013-09-18 15:28:00,76.2,63.0,29.69,West,259,2.0,-999.0,64,-99.99,,,0.00,weatherlink.com 1.10,2013-09-18 22:28:00,
2013-09-18 15:43:00,75.9,63.0,29.69,West,267,4.0,-999.0,64,-99.99,,,0.00,weatherlink.com 1.10,2013-09-18 22:43:00,
2013-09-18 15:58:00,75.6,63.0,29.69,SSW,211,4.0,-999.0,64,-99.99,,,0.00,weatherlink.com 1.10,2013-09-18 22:58:00,
2013-09-18 16:13:00,75.5,63.0,29.69,WSW,246,6.0,-999.0,65,-99.99,,,0.00,weatherlink.com 1.10,2013-09-18 23:13:00,
2013-09-18 16:28:00,74.0,62.0,29.68,WSW,248,4.0,-999.0,67,-99.99,,,0.00,weatherlink.com 1.10,2013-09-18 23:28:00,
2013-09-18 16:43:00,74.8,63.0,29.68,SSW,202,3.0,-999.0,66,-99.99,,,0.00,weatherlink.com 1.10,2013-09-18 23:43:00,
2013-09-18 16:58:00,74.0,62.0,29.68,SSW,209,3.0,-999.0,66,-99.99,,,0.00,weatherlink.com 1.10,2013-09-18 23:58:00,
2013-09-18 17:13:00,73.2,62.0,29.68,SSW,197,3.0,-999.0,69,-99.99,,,0.00,weatherlink.com 1.10,2013-09-19 00:13:00,
2013-09-18 17:28:00,72.0,62.0,29.68,SW,219,4.0,-999.0,71,-99.99,,,0.00,weatherlink.com 1.10,2013-09-19 00:28:00,
2013-09-18 17:43:00,71.4,62.0,29.68,SSW,207,4.0,-999.0,72,-99.99,,,0.00,weatherlink.com 1.10,2013-09-19 00:43:00,
2013-09-18 17:58:00,70.6,62.0,29.68,SSW,200,4.0,-999.0,75,-99.99,,,0.00,weatherlink.com 1.10,2013-09-19 00:58:00,
2013-09-18 18:13:00,70.1,62.0,29.68,SW,217,3.0,-999.0,76,-99.99,,,0.00,weatherlink.com 1.10,2013-09-19 01:13:00,
2013-09-18 18:28:00,69.6,62.0,29.68,SW,225,2.0,-999.0,76,-99.99,,,0.00,weatherlink.com 1.10,2013-09-19 01:28:00,
2013-09-18 18:43:00,69.4,62.0,29.68,SSW,210,4.0,-999.0,77,-99.99,,,0.00,weatherlink.com 1.10,2013-09-19 01:43:00,
2013-09-18 18:58:00,69.0,62.0,29.68,South,180,2.0,-999.0,78,-99.99,,,0.00,weatherlink.com 1.10,2013-09-19 01:58:00,
2013-09-18 19:13:00,68.6,62.0,29.69,South,182,0.0,-999.0,80,-99.99,,,0.00,weatherlink.com 1.10,2013-09-19 02:13:00,
2013-09-18 19:28:00,68.4,62.0,29.69,South,182,2.0,-999.0,80,-99.99,,,0.00,weatherlink.com 1.10,2013-09-19 02:28:00,
2013-09-18 19:43:00,68.1,61.0,29.69,South,182,0.0,-999.0,79,-99.99,,,0.00,weatherlink.com 1.10,2013-09-19 02:43:00,
2013-09-18 19:58:00,67.9,62.0,29.69,South,182,0.0,-999.0,80,-99.99,,,0.00,weatherlink.com 1.10,2013-09-19 02:58:00,
2013-09-18 20:13:00,67.7,61.0,29.70,South,182,0.0,-999.0,80,-99.99,,,0.00,weatherlink.com 1.10,2013-09-19 03:13:00,
2013-09-18 20:28:00,67.6,62.0,29.70,South,182,0.0,-999.0,81,-99.99,,,0.00,weatherlink.com 1.10,2013-09-19 03:28:00,
2013-09-18 20:43:00,67.2,62.0,29.71,South,182,0.0,-999.0,82,-99.99,,,0.00,weatherlink.com 1.10,2013-09-19 03:43:00,
2013-09-18 20:58:00,66.8,61.0,29.71,South,182,0.0,-999.0,82,-99.99,,,0.00,weatherlink.com 1.10,2013-09-19 03:58:00,
2013-09-18 21:13:00,66.5,61.0,29.71,South,182,0.0,-999.0,83,-99.99,,,0.00,weatherlink.com 1.10,2013-09-19 04:13:00,
2013-09-18 21:28:00,66.2,61.0,29.71,South,182,0.0,-999.0,83,-99.99,,,0.00,weatherlink.com 1.10,2013-09-19 04:28:00,
2013-09-18 21:43:00,65.9,61.0,29.72,South,182,0.0,-999.0,84,-99.99,,,0.00,weatherlink.com 1.10,2013-09-19 04:43:00,
2013-09-18 21:58:00,65.4,61.0,29.72,South,182,0.0,-999.0,84,-99.99,,,0.00,weatherlink.com 1.10,2013-09-19 04:58:00,
2013-09-18 22:13:00,65.2,61.0,29.72,South,182,0.0,-999.0,85,-99.99,,,0.00,weatherlink.com 1.10,2013-09-19 05:13:00,
2013-09-18 22:28:00,64.8,60.0,29.72,South,182,0.0,-999.0,85,-99.99,,,0.00,weatherlink.com 1.10,2013-09-19 05:28:00,
2013-09-18 22:43:00,64.5,60.0,29.71,South,182,0.0,-999.0,86,-99.99,,,0.00,weatherlink.com 1.10,2013-09-19 05:43:00,
2013-09-18 22:58:00,64.3,60.0,29.71,South,182,0.0,-999.0,86,-99.99,,,0.00,weatherlink.com 1.10,2013-09-19 05:58:00,
2013-09-18 23:13:00,63.8,60.0,29.71,South,182,0.0,-999.0,86,-99.99,,,0.00,weatherlink.com 1.10,2013-09-19 06:13:00,
2013-09-18 23:28:00,63.5,60.0,29.71,South,182,0.0,-999.0,87,-99.99,,,0.00,weatherlink.com 1.10,2013-09-19 06:28:00,
2013-09-18 23:43:00,63.1,59.0,29.71,South,182,0.0,-999.0,87,-99.99,,,0.00,weatherlink.com 1.10,2013-09-19 06:43:00,
2013-09-18 23:58:00,62.9,59.0,29.71,South,182,0.0,-999.0,88,-99.99,,,0.00,weatherlink.com 1.10,2013-09-19 06:58:00,